YZ-1 R/B (44544 NORAD) Tracking and Keplerian Element Data

This shows tracking and keplerian element data for the satellite.

Feedback or suggestion? Click here.




ElementValue
Catalog44544
NameYZ-1 R/B
Epoch Orbit16
Epoch Day274.35070531
Epoch Year2019
RAAN265.8786
Inclination55.1277
Eccentricity0.003222
Argument of Perigee233.0477
Mean Anonmoly126.6393
Mean Motion1.80433454
Decay Rate0
L11 44544U 19061C 19274.35070531 -.00000000 00000-0 10000-3 0 9990
L22 44544 55.1277 265.8786 0032220 233.0477 126.6393 1.80433454 166

Live tracking and technical data element details for YZ-1 R/B (NORAD 44544). YZ-1 R/B can be tracked NOW for your location showing map with azimuth and elevation plus other details from your city location.

Track the satellite on the map from your city or location and see movement details for azimuth, elevation, latitude, longitude, range, height, and movement on the map or in text.







IsCatalogInMostPopularTable: catalog: 44544, numindb: 20
Update: records affected: 1



GetName: 44544 YZ-1 R/B

Hit Count: updated at: Thu, 12 Dec 2019 00:48:59 GMT